Location: Mahannah Oil Field
(37.4664°N, 96.6003°W)
Time: 01:18:36
(UTC+00:00)

A-11 Canister half - Pass Details

Date: 31 January 2021
Orbit: 1524 x 1684 km, 47.3° (Epoch: 25 February)

Event Time Altitude Azimuth Distance (km) Brightness Sun altitude
Rises 15:44:04 0° 170° (S) 4,679 12.4 21.5°
Reaches altitude 10° 15:49:56 10° 141° (SE) 3,685 13.1 22.3°
Maximum altitude 15:52:55 12° 122° (ESE) 3,534 12.7 22.7°
Drops below altitude 10° 15:55:54 10° 102° (ESE) 3,686 12.0 23.1°
Sets 16:01:42 0° 74° (ENE) 4,682 11.9 23.9°
